EST,Max TemperatureF,Mean TemperatureF,Min TemperatureF,Max Dew PointF,MeanDew PointF,Min DewpointF,Max Humidity, Mean Humidity, Min Humidity, Max Sea Level PressureIn, Mean Sea Level PressureIn, Min Sea Level PressureIn, Max VisibilityMiles, Mean VisibilityMiles, Min VisibilityMiles, Max Wind SpeedMPH, Mean Wind SpeedMPH, Max Gust SpeedMPH,PrecipitationIn, CloudCover, Events, WindDirDegrees
2012-11-1,54,48,42,38,36,35,76,63,49,29.58,29.56,29.52,10,10,10,9,6,,0.00,5,,225
2012-11-2,54,48,43,39,35,30,74,60,45,29.68,29.61,29.57,10,10,10,10,4,,0.00,8,,292
2012-11-3,52,47,41,32,29,27,65,54,41,29.88,29.78,29.68,10,10,10,15,8,23,0.00,4,,310
2012-11-4,52,44,35,31,29,27,76,58,43,29.96,29.92,29.88,10,10,10,14,5,18,0.00,1,,319
2012-11-5,43,38,32,26,21,17,58,50,41,30.17,30.05,29.97,10,10,10,15,8,20,0.00,4,,342
2012-11-6,42,33,24,23,19,15,84,60,35,30.25,30.20,30.15,10,10,10,7,2,,0.00,0,,15
2012-11-7,37,34,30,30,26,19,93,78,57,30.14,29.89,29.76,10,4,0,25,14,34,0.07,7,Fog-Snow,5
2012-11-8,43,38,32,34,28,25,88,73,53,29.85,29.74,29.69,10,6,1,18,15,31,0.06,8,Rain-Snow,351
2012-11-9,53,44,36,34,23,15,71,47,24,30.15,30.01,29.85,10,10,10,14,8,21,0.00,1,,322
2012-11-10,57,48,39,39,35,31,79,62,44,30.44,30.29,30.16,10,10,9,7,2,,0.00,2,,180
2012-11-11,64,52,39,47,43,36,89,71,48,30.50,30.46,30.42,10,9,5,13,4,21,0.00,2,,179
2012-11-12,66,54,42,58,50,41,94,84,63,30.47,30.40,30.21,10,6,0,15,4,20,0.00,4,Fog-Rain,185
2012-11-13,64,52,39,59,44,27,88,76,51,30.44,30.26,30.12,10,9,3,14,9,22,0.18,7,Rain,336
2012-11-14,46,40,33,27,24,21,73,55,43,30.55,30.49,30.44,10,10,10,15,8,18,0.00,2,,3
2012-11-15,44,36,28,29,24,21,82,64,47,30.49,30.41,30.32,10,10,10,9,5,,0.00,1,,12
2012-11-16,45,38,32,29,25,20,88,61,37,30.45,30.35,30.30,10,10,10,9,3,,0.00,0,,12
2012-11-17,48,38,28,29,26,23,85,65,39,30.66,30.59,30.45,10,10,7,10,3,,0.00,0,,9
2012-11-18,48,37,26,30,27,23,89,67,48,30.72,30.66,30.62,10,9,5,7,2,,0.00,0,,18
2012-11-19,48,38,28,32,28,25,85,72,54,30.61,30.45,30.28,10,10,7,12,5,,0.00,1,,11
2012-11-20,48,37,26,31,28,25,93,75,46,30.26,30.19,30.13,10,10,7,6,2,,0.00,0,,27
2012-11-21,52,43,34,31,29,27,82,63,41,30.26,30.22,30.17,10,10,9,9,3,,0.00,0,,9
2012-11-22,54,42,30,37,31,25,89,76,48,30.30,30.21,30.14,10,8,2,6,2,,0.00,1,,24
2012-11-23,55,42,28,45,34,27,100,86,49,30.13,29.98,29.66,10,4,0,13,2,16,0.03,4,Fog-Rain,176
2012-11-24,48,41,34,46,23,15,93,50,32,29.76,29.67,29.60,10,10,5,17,9,31,0.02,5,,304
2012-11-25,39,34,28,22,18,15,64,51,38,29.92,29.84,29.77,10,10,10,14,8,28,0.00,2,,263
2012-11-26,46,37,28,25,22,20,85,55,37,30.27,30.08,29.92,10,10,10,15,6,22,0.00,3,,268
2012-11-27,35,32,28,32,30,23,93,87,75,30.33,30.27,30.22,10,4,0,8,2,,0.12,7,Rain-Snow,17
2012-11-28,42,35,28,31,26,19,89,73,45,30.23,30.20,30.14,10,8,4,12,6,,0.00,5,,346
2012-11-29,44,35,26,24,21,18,84,56,37,30.31,30.26,30.21,10,10,10,9,4,20,0.00,0,,234
2012-11-30,39,34,30,26,20,11,79,57,40,30.53,30.43,30.28,10,10,4,12,6,,0.00,4,Snow,5